BSAT-4A

Last updated on Mon Oct 20 2025 00:02:49 GMT+0000 (Coordinated Universal Time)

1 42951U 17059B 25292.00367604 -.00000354 00000+0 00000+0 0 9990 2 42951 0.0820 63.9713 0000246 338.2914 96.6522 1.00270922 29389
UTC large
Height (km)
Speed (km/s)
/
Latitude / Longitude
Inclination (degrees)
Orbital Period (minutes)
Azimuth
Elevation
Range (km)
Doppler Factor

Next 0 passes for location: London (51.5072 / 0.1276)

Sorry there are no passes over London.